Miscellaneous Local Product
Issued by NWS Hastings, NE

Home | Current Version | Previous Version | Text Only | Print | Product List | Glossary Off
Versions: 1 2 3 4 5 6 7 8 9 10 11 12 13 14 15 16 17 18 19 20 21 22 23 24 25 26 27 28 29 30 31 32 33 34 35 36 37 38 39 40 41 42 43 44 45 46 47 48 49 50

145
AXUS43 KGID 121802
MISGRI

GID CWA HOURLY WEATHER ROUNDUP
NATIONAL WEATHER SERVICE HASTINGS NE
1200 PM CST TUE DEC 12 2017

NOTE: "FAIR" INDICATES FEW OR NO CLOUDS BELOW 12,000 FEET WITH NO
SIGNIFICANT WEATHER AND/OR OBSTRUCTIONS TO VISIBILITY.

...SOUTH CENTRAL NEBRASKA...

CITY           SKY/WX    TMP DP  RH WIND       PRES   REMARKS
GRAND ISLAND   SUNNY     42  28  57 W8        30.22F
KEARNEY        SUNNY     43  23  45 W12       30.22F
HASTINGS       SUNNY     43  26  51 W10       30.23F
ORD            SUNNY     44  26  49 W8        30.18F
YORK           SUNNY     43  28  56 W8        30.22F
AURORA         SUNNY     42  28  55 W10       30.22F
LEXINGTON      SUNNY     42  22  46 NW8       30.22F
HOLDREGE       SUNNY     42  27  54 SW7       30.23F
HEBRON         SUNNY     44  28  54 W8        30.26F

...NEBRASKA PANHANDLE...

CITY           SKY/WX    TMP DP  RH WIND       PRES   REMARKS
CHADRON        SUNNY     49  22  34 W12       30.18F
ALLIANCE       SUNNY     59  22  24 NW13      30.18F
SCOTTSBLUFF    SUNNY     50  19  29 NW10      30.23F
SIDNEY         SUNNY     60  16  18 NW20      30.23F

...WESTERN AND NORTH CENTRAL NEBRASKA...

CITY           SKY/WX    TMP DP  RH WIND       PRES   REMARKS
VALENTINE      SUNNY     44  22  41 W7        30.14F
AINSWORTH      SUNNY     45  24  42 W7        30.14F
ONEILL         SUNNY     41  29  62 W9        30.16F
BROKEN BOW     SUNNY     45  23  42 W7        30.18F
IMPERIAL       SUNNY     54  18  24 NW10      30.23F
NORTH PLATTE   SUNNY     42  22  44 W7        30.22F
MCCOOK         SUNNY     43  21  41 W10       30.23F

...EASTERN NEBRASKA...

CITY           SKY/WX    TMP DP  RH WIND       PRES   REMARKS
NORFOLK        SUNNY     41  29  62 VRB5      30.16F
SO SIOUX CITY  PTSUNNY   32  22  66 S7        30.21F WCI  26
TEKAMAH        CLOUDY    33  21  61 MISG      30.24F
COLUMBUS       SUNNY     42  29  59 W12       30.21F
ALBION         SUNNY     43  28  56 W7        30.19F
OMAHA EPPLEY   MOSUNNY   32  17  54 SE5       30.26F WCI  27
OFFUTT AFB     SUNNY     32  19  58 SW3       30.25F
MILLARD        SUNNY     35  23  62 W3        30.25F
LINCOLN        CLOUDY    37  27  67 SW6       30.26F WCI  32
NEBRASKA CITY  SUNNY     33  22  65 SW3       30.27F
BEATRICE       CLOUDY    40  30  67 S5        30.26F
FALLS CITY     SUNNY     33  18  53 NW7       30.29F WCI  27

...NORTHERN KANSAS...

CITY           SKY/WX    TMP DP  RH WIND       PRES   REMARKS
GOODLAND       SUNNY     59  16  18 NW14      30.25F
HILL CITY      SUNNY     49  21  33 SW7       30.26F
NORTON         CLEAR     48  14  25 W12       30.23F
PHILLIPSBURG   SUNNY     46  25  42 SW8       30.26F
SMITH CENTER   PTSUNNY   41  27  56 SW6       30.28F
HAYS           SUNNY     47  26  44 W13       30.28F
RUSSELL        SUNNY     45  28  51 SW12      30.27F
CONCORDIA      SUNNY     43  28  55 SW10      30.28F
SALINA         SUNNY     46  30  53 W12       30.31F
TOPEKA         SUNNY     37  20  50 W8        30.32F WCI  31



USA.gov is the U.S. government's official web portal to all federal, state and local government web resources and services.